Volver al catálogo

STARLINK-4720

ActivoComunicacionesVLEO
NORAD 53800·PAYLOAD·🇺🇸 United States

Lanzado Sep 11, 2022 desde Cape Canaveral Space Force Station

Loading…

Próximos Pases (próximas 24 horas)

TLE

ActualizadoSource: CelesTrak SupGP

Época: Sep 15, 2026, 02:21 UTC

1 53800C 22111AD  26258.09840278  .00040276  00000+0  34844-3 0  2586
2 53800  53.2051  40.1900 0002150  93.7585 148.7415 15.68500434    10

Sigue STARLINK-4720 en tiempo real con AllMySat

Download on the App Store